Location: Lescure
(43.0013°N, 1.2405°E)
Time: 15:12:28
(UTC+00:00)

Daily predictions for brighter satellites

Satellite Brightness Start Highest point End
(mag) Time Altitude Azimuth Time Altitude Azimuth Time Altitude Azimuth
Cosmos 1680 Rocket 3.6 19:59:00 10° NNW 20:04:16 89° WSW 20:09:32 10° SSE
PSLV R/B 3.5 20:01:18 10° SSE 20:04:48 78° ENE 20:08:23 10° N
Cosmos 2074 Rocket 4.4 20:01:03 10° SSE 20:06:56 46° E 20:12:52 10° NNE
Cosmos 1892 2.8 20:03:48 10° SSW 20:07:20 72° W 20:10:53 10° N
Cosmos 1603 3.8 20:01:58 10° NNW 20:07:42 82° ENE 20:13:22 10° SSE
CSL-04 Rocket 4.0 20:02:45 10° S 20:08:12 72° WSW 20:13:45 10° NNW
ISS -1.6 20:12:36 10° W 20:15:33 29° NNW 20:18:29 10° NE
SPOT 5 3.3 20:10:57 10° SSE 20:15:39 52° ENE 20:20:38 10° N
MOS 1 Rocket 4.5 20:12:04 10° ESE 20:15:54 26° ENE 20:19:36 10° NNE
Cosmos 921 Rocket 4.0 20:14:22 10° N 20:18:08 31° ENE 20:21:45 11° SE
Cosmos 2112 Rocket 4.2 20:15:45 10° NNW 20:20:58 76° WSW 20:26:13 10° SSE
USA 186 4.3 20:19:14 10° SW 20:21:35 20° W 20:23:56 10° NW
Cosmos 1328 3.6 20:18:03 10° S 20:21:52 79° E 20:25:40 10° N
Cosmos 1825 3.0 20:19:16 10° SSW 20:22:32 46° W 20:25:50 10° N
USA 215 3.3 20:16:10 10° SE 20:22:43 85° NE 20:29:19 10° NW
Cosmos 494 Rocket 4.2 20:20:25 10° NNW 20:25:36 57° ENE 20:30:30 11° SE
NOSS 2-3 (D) 3.6 20:22:36 10° S 20:26:02 38° ESE 20:29:37 10° NE
Okean-O 2.6 20:23:40 10° SSE 20:28:04 88° ENE 20:32:30 10° NNW
ARGOS Delta rocket 4.0 20:24:05 10° S 20:28:42 74° W 20:33:37 10° NNW
Timation 2 Rocket 4.2 20:24:34 10° S 20:30:40 49° ESE 20:36:33 10° NE
Gbstr 26 Del rocket 4.4 20:27:19 10° W 20:31:21 43° NNW 20:36:13 10° NE
Cosmos 1125 Rocket 4.3 20:28:19 10° SSE 20:32:58 32° E 20:37:38 10° NE
CZ-4C R/B 3.1 20:31:18 10° NNE 20:34:57 58° ESE 20:38:24 10° S
USA 276 3.8 20:37:07 10° NW 20:39:41 27° NNE 20:42:20 10° ENE
Cosmos 2084 3.2 20:37:06 10° SSW 20:41:17 72° SE 20:45:17 10° NE
SPOT 3 Rocket 4.4 20:38:30 14° SE 20:42:29 37° ENE 20:47:15 10° N
NOSS 2-2 (E) 2.7 20:45:33 10° SW 20:48:57 89° SSE 20:52:04 10° NE
NOSS 2-2 (C) 3.6 20:46:06 10° SW 20:49:20 53° NW 20:52:23 10° NNE
In-Cosmos 22 Rocket 4.3 20:45:22 10° S 20:51:02 61° E 20:56:35 10° NNE
BREEZE-M DEB (TANK) 3.9 20:51:40 10° NW 20:54:31 53° NNE 21:02:06 10° ESE
Nadezhda 3 Rocket 4.0 20:48:46 10° N 20:54:56 73° E 21:00:16 14° SSE
NOSS 2-3 (E) 3.1 20:51:26 10° SW 20:55:04 88° NW 20:59:00 10° NE
Terra 1.9 20:52:39 17° SSE 20:56:17 66° ENE 21:00:59 10° N
Meteor 1-21 Rocket 4.4 20:56:58 10° SSW 21:02:30 75° W 21:08:03 10° N
Cosmos 1437 Rocket 3.8 21:07:19 23° ESE 21:07:55 24° E 21:10:52 10° NE
ATLAS CENTAUR R/B 1.3 21:04:38 10° NNW 21:08:39 72° NE 21:10:52 26° SE
GP-B 4.4 21:04:34 10° NNW 21:08:41 39° W 21:12:46 10° SSW
NOSS 2-3 (C) 3.8 21:09:19 10° SW 21:12:52 57° NW 21:16:45 10° NNE
Cosmos 1833 Rocket 3.4 21:09:44 10° NNW 21:15:04 40° ENE 21:18:22 21° ESE
Meteor 2-1 Rocket 4.2 21:09:42 10° N 21:15:20 75° E 21:18:58 22° SSE
Cosmos 1455 Rocket 3.3 21:12:14 10° NNW 21:16:36 67° W 21:19:45 18° S
Cosmos 1975 Rocket 3.1 21:12:45 11° S 21:17:01 80° W 21:21:30 10° N
Cosmos 1025 Rocket 4.5 21:13:37 10° SW 21:17:32 36° WNW 21:21:30 10° N
Cosmos 44 3.6 21:12:47 10° SSW 21:17:55 53° ESE 21:22:54 10° NE
Cosmos 962 Rocket 4.5 21:14:54 16° S 21:19:49 65° E 21:25:55 10° NNE
Orbus 7S? 2.5 21:17:56 10° NW 21:20:35 73° SW 21:21:21 43° SSE
Lacrosse 5 3.8 21:16:10 10° W 21:20:41 32° NNW 21:25:14 10° NE
ERS-1 Rocket 3.4 21:18:03 16° S 21:21:59 60° W 21:26:57 10° NNW
Spot 2 Rocket 3.5 21:19:30 21° S 21:22:59 82° WSW 21:28:06 10° NNW
Cosmos 220 Rocket 4.2 21:22:30 10° N 21:26:35 53° ENE 21:28:09 33° SE
Cosmos 2218 Rocket 4.3 21:23:42 24° SSE 21:26:59 45° E 21:32:48 10° NNE
Cosmos 2082 Rocket 4.2 21:24:09 10° N 21:27:50 17° NE 21:31:28 10° E
Cosmos 2278 Rocket 3.0 21:31:13 27° SE 21:32:38 31° ESE 21:37:32 10° NE
Landsat 5 3.8 21:28:23 10° NNE 21:32:41 50° E 21:34:10 34° SSE
MetOp-A 4.1 21:35:01 32° SE 21:36:49 50° ENE 21:41:04 10° N
Cosmos 1606 2.5 21:33:23 10° NNW 21:36:57 75° W 21:38:05 40° S
Cosmos 2298 Rocket 4.0 21:33:31 22° S 21:36:57 65° ESE 21:42:14 10° NNE
Cosmos 2341 Rocket 4.0 21:33:38 22° S 21:37:52 72° E 21:44:11 10° NNE
Cosmos 1339 Rocket 4.5 21:33:12 10° N 21:39:27 81° W 21:43:23 24° S
Cosmos 614 Rocket 4.5 21:37:45 10° N 21:42:38 45° ENE 21:44:35 30° ESE
Cosmos 1536 Rocket 3.6 21:47:10 43° SE 21:48:14 56° E 21:52:28 10° NNE
Cosmos 1869 3.6 21:45:02 10° NNW 21:48:47 58° W 21:50:08 35° SSW
Ariane Rocket 3.6 21:47:25 23° SSW 21:50:25 50° W 21:55:21 10° NNW
ISS -0.9 21:50:40 10° NW 21:53:03 18° N 21:55:26 10° NE
USA 290 4.4 21:58:14 16° ENE 21:58:14 16° ENE 21:59:11 10° NE
ARIANE 5 R/B 3.6 21:58:54 30° E 21:59:53 33° ENE 22:03:53 10° N
ATLAS 3B R/B 3.4 22:01:26 31° SE 22:02:51 34° ESE 22:09:22 10° NE
GENESIS II 3.9 21:59:46 10° NNW 22:03:20 71° NE 22:03:31 69° E
BREEZE-M DEB (TANK) 2.8 21:55:07 10° WNW 22:05:09 78° SW 22:06:12 49° SE
USA 215 4.5 22:03:13 20° SSW 22:06:11 27° SW 22:11:38 10° WNW
Cosmos 1727 Rocket 4.4 22:00:19 10° N 22:06:29 51° ENE 22:08:48 35° SE
Cosmos 2228 3.0 22:02:55 10° NNW 22:07:06 68° W 22:08:06 48° SSW
Cosmos 1943 Rocket 2.7 22:08:20 37° ESE 22:09:00 38° ESE 22:14:10 10° NE
Cosmos 1821 Rocket 4.1 22:09:49 38° SSE 22:12:10 62° E 22:18:26 10° NNE
USA 276 3.2 22:11:06 10° WNW 22:13:09 38° WNW 22:13:09 38° WNW
ALOS 2 4.4 22:19:19 19° E 22:20:08 20° ENE 22:23:19 10° NNE
NOSS 3-1 (C) 3.0 22:24:27 23° SW 22:27:30 77° NW 22:33:15 10° NE
SeaSat 1 3.7 22:26:56 24° E 22:28:44 32° NE 22:33:03 10° N
Terra 4.3 22:32:01 10° WSW 22:34:18 13° W 22:36:38 10° WNW
Cosmos 1812 3.5 22:33:42 10° N 22:36:28 38° NE 22:36:28 38° NE
BREEZE-M R/B 4.1 22:37:26 10° W 22:41:38 67° NNW 22:54:49 10° ENE
Cosmos 1892 Rocket 3.6 22:45:05 67° E 22:45:05 67° E 22:49:30 10° NNE
PSLV R/B 3.9 22:41:10 10° NNE 22:44:51 70° NE 22:44:51 70° NE
ATLAS CENTAUR R/B 3.8 22:44:17 10° W 22:45:43 12° WSW 22:45:46 12° WSW
Cosmos 1140 Rocket 4.2 22:48:56 10° N 22:53:46 41° ENE 22:54:49 36° E
Cosmos 2239 Rocket 4.4 22:55:30 49° S 22:57:19 88° W 23:03:35 10° N
Cosmos 1833 Rocket 3.8 22:53:56 10° NW 22:58:49 31° WSW 23:00:03 28° SW
SL-08 R/B 4.4 22:57:34 50° SSW 22:59:19 86° W 23:05:28 10° N
NOSS 3-1 (A) 2.9 23:03:57 60° SW 23:04:54 87° NW 23:10:40 10° NE
Cosmos-2242 4.4 23:02:23 10° NNE 23:05:51 28° ENE 23:05:51 28° ENE
Cosmos 2123 Rocket 4.0 23:00:04 10° N 23:06:21 69° E 23:07:51 52° SE
Cosmos 1606 Rocket 4.2 23:02:50 10° NNW 23:06:56 44° W 23:07:01 44° W
Cosmos 1726 Rocket 3.8 23:04:56 10° NNW 23:09:05 57° W 23:09:05 57° W
Cosmos 1000 Rocket 4.4 23:05:02 10° N 23:11:10 75° W 23:12:37 53° SSW
Cosmos 2082 Rocket 2.0 23:07:00 10° NNW 23:12:39 85° WSW 23:13:28 67° SSE
Cosmos 2278 Rocket 3.3 23:12:59 19° WSW 23:16:33 41° WNW 23:21:53 10° NNE
Cosmos 2369 Rocket 3.4 23:19:37 27° E 23:19:37 27° E 23:23:49 10° NE
H-2A R/B 2.8 23:20:31 57° NW 23:20:31 57° NW 23:23:43 10° NNW
ULPM Upper Stage 3.1 23:16:40 10° NNW 23:20:59 60° NE 23:20:59 60° NE
PSLV R/B 4.2 23:18:43 10° NNE 23:22:20 45° ENE 23:22:20 45° ENE
Cosmos 489 Rocket 4.3 23:24:24 59° S 23:25:39 82° ESE 23:31:54 10° NNE
ISS -1.8 23:27:32 10° NW 23:30:09 29° N 23:30:09 29° N
USA 229 DEB 3.6 23:32:18 50° SE 23:32:34 50° ESE 23:38:54 10° NE
USA 229 3.7 23:32:27 50° SE 23:32:41 50° ESE 23:39:01 10° NE
Cosmos 2058 Rocket 3.4 23:30:43 10° NNW 23:34:37 56° WNW 23:34:37 56° WNW
Cosmos 1782 3.6 23:31:43 10° N 23:34:35 45° NNE 23:34:35 45° NNE
ARIANE 5 R/B 4.2 23:36:22 24° W 23:36:22 24° W 23:39:56 10° NW
CRYOSAT 2 4.2 23:32:58 10° N 23:37:52 89° W 23:37:58 87° SSW
CZ-4C R/B 3.3 23:33:27 10° NNW 23:40:37 64° NE 23:45:35 27° ESE
Cosmos 1934 Rocket 4.1 23:39:12 49° SW 23:40:47 66° W 23:47:01 10° N
COSMOS 2406 3.2 23:36:48 10° NNW 23:42:25 63° WSW 23:42:49 61° SW
Meteor 2-2 Rocket 4.3 23:36:45 10° N 23:42:29 70° ENE 23:43:24 59° SE
Cosmos 2221 4.3 23:43:21 10° NNE 23:46:39 21° ENE 23:46:52 21° ENE
Cosmos 1943 Rocket 3.5 23:49:47 21° WSW 23:52:45 34° NW 23:57:51 10° N
Cosmos 2285 Rocket 4.5 23:47:09 10° NNW 23:53:28 55° ENE 23:55:34 39° ESE
Cosmos 2058 4.4 23:54:52 28° WNW 23:54:52 28° WNW 23:58:24 10° NNW
